{"data":{"norad_id":49085,"intl_designator":"2021-075L","name":"ONEWEB-0296","alt_names":[],"object_type":"PAYLOAD","status":"ACTIVE","operator":null,"country":"UK","launch_date":"2021-08-21","launch_site_code":"TYMSC","launch_vehicle":null,"mission":null,"orbit_class":"UNKNOWN","rcs_meters":null,"size_class":null,"mass_kg":null,"dimensions":null,"purposes":["comms"],"wikipedia_slug":null,"has_3d_model":false,"image_url":null,"decayed_at":null,"tle_current":{"epoch":"2026-09-20T03:34:50.557728Z","epoch_age_seconds":52332,"freshness":"FRESH","line1":"1 49085U 21075L   26263.14919627 -.00000275  00000+0 -80015-3 0  9991","line2":"2 49085  87.8978 331.8150 0001751 109.1243 251.0075 13.12443609247039","mean_motion":13.12443609,"eccentricity":0.0001751,"inclination_deg":87.8978,"raan_deg":331.815,"arg_perigee_deg":109.1243,"mean_anomaly_deg":251.0075,"bstar":-0.00080015,"rev_number":24703,"period_min":109.71899974409,"perigee_km":1212.3916082055,"apogee_km":1215.050276857,"semimajor_km":7591.8579425312,"source":"CELESTRAK","updated_at":"2026-09-20T09:00:44.632834Z"}}}